Weather History for Branson, MO

Change the Weather History Date:

Thursday, December 5, 2013

  Actual Average (KHRO) Record (KHRO)
Temperature  
Mean Temperature 26 °F 40 °F  
Max Temperature 33 °F 50 °F 77 °F (1998)
Min Temperature 19 °F 31 °F 11 °F (1911)
Degree Days  
Heating Degree Days 39 24  
Month to date heating degree days 118  
Since 1 July heating degree days 882  
Cooling Degree Days 0 0  
Month to date cooling degree days 0  
Year to date cooling degree days 1416  
Moisture  
Dew Point 19 °F    
Average Humidity 86    
Maximum Humidity 100    
Minimum Humidity 74    
Precipitation  
Precipitation 2.09 in 0.11 in 3.71 in (1975)
Month to date precipitation 0.60  
Year to date precipitation 41.54  
Snow  
Snow 0.00 in 0.00 in 6.10 in (1984)
Month to date snowfall 0.0  
Since 1 July snowfall 0.5  
Snow Depth -    
Sea Level Pressure  
Sea Level Pressure 30.11 in    
Wind  
Wind Speed 11 mph (NNW)    
Max Wind Speed 17 mph    
Max Gust Speed 23 mph    
Visibility 7 miles    
Events Rain , Snow    
T = Trace of Precipitation, MM = Missing Value Source: NWS Daily Summary

Daily Weather History Graph

Daily Weather History Graph

Search for Another Location

Airport:

Trip Planner

Search our weather history database for the weather conditions in past years. The results will help you decide how hot, cold, wet, or windy it might be!

Date:

Astronomy

Dec. 05, 2013 Rise Set
Actual Time 7:10 AM CST 4:57 PM CST
Civil Twilight 6:41 AM CST 5:25 PM CST
Nautical Twilight 6:09 AM CST 5:57 PM CST
Astronomical Twilight 5:38 AM CST 6:28 PM CST
Moon 9:32 AM CST (12/5) 8:15 PM CST (12/5)
Length of Visible Light 10h 44m
Length of Day
9h 46m
Waxing Crescent, 11% of the Moon is Illuminated
Dec 5
Waxing Crescent
Dec 9
First Quarter
Dec 17
Full
Dec 25
Last Quarter
Jan 1
New

Hourly Weather History & Observations

Time (CST) Temp. Windchill Dew Point Humidity Pressure Visibility Wind Dir Wind Speed Gust Speed Precip Events Conditions
12:15 AM 33.8 °F 25.3 °F - N/A% 29.93 in 10.0 mi NW 11.5 mph - N/A   Overcast
12:35 AM 32.0 °F 24.2 °F - N/A% 29.94 in 10.0 mi NW 9.2 mph - N/A   Overcast
12:55 AM 32.0 °F 24.2 °F - N/A% 29.95 in 10.0 mi WNW 9.2 mph 16.1 mph N/A   Overcast
1:15 AM 32.0 °F 23.6 °F - N/A% 29.96 in 10.0 mi WNW 10.4 mph - N/A   Overcast
1:35 AM 32.0 °F 22.5 °F - N/A% 29.96 in 10.0 mi NW 12.7 mph - N/A   Overcast
1:55 AM 32.0 °F 21.2 °F - N/A% 29.97 in 10.0 mi NW 16.1 mph 19.6 mph N/A   Overcast
2:15 AM 30.2 °F 19.3 °F - N/A% 29.98 in 10.0 mi NW 15.0 mph 23.0 mph N/A   Overcast
2:35 AM 28.4 °F 18.0 °F - N/A% 30.00 in 10.0 mi NW 12.7 mph 20.7 mph N/A   Overcast
2:55 AM 28.4 °F 18.5 °F - N/A% 30.00 in 10.0 mi NW 11.5 mph 19.6 mph N/A   Overcast
3:15 AM 28.4 °F 18.5 °F - N/A% 30.02 in 10.0 mi NW 11.5 mph 20.7 mph N/A   Overcast
3:35 AM 28.4 °F 18.0 °F - N/A% 30.03 in 10.0 mi NW 12.7 mph 18.4 mph N/A   Overcast
3:55 AM 28.4 °F 18.0 °F - N/A% 30.04 in 10.0 mi NW 12.7 mph 16.1 mph N/A   Overcast
4:15 AM 28.4 °F 18.5 °F - N/A% 30.05 in 10.0 mi NW 11.5 mph 20.7 mph N/A   Overcast
4:35 AM 28.4 °F 20.4 °F - N/A% 30.05 in 10.0 mi NW 8.1 mph 18.4 mph N/A   Overcast
4:55 AM 28.4 °F 20.4 °F - N/A% 30.05 in 10.0 mi NW 8.1 mph - N/A   Overcast
5:15 AM 28.4 °F 18.5 °F - N/A% 30.07 in 10.0 mi NW 11.5 mph 17.3 mph N/A   Overcast
5:35 AM 28.4 °F 17.0 °F - N/A% 30.08 in 10.0 mi NNW 15.0 mph 19.6 mph N/A   Overcast
5:55 AM 28.4 °F 17.0 °F - N/A% 30.09 in 10.0 mi NW 15.0 mph 18.4 mph N/A   Overcast
6:15 AM 28.4 °F 19.7 °F - N/A% 30.10 in 10.0 mi NW 9.2 mph - N/A   Overcast
6:35 AM 28.4 °F 17.5 °F - N/A% 30.10 in 10.0 mi NNW 13.8 mph - N/A   Overcast
6:54 AM 26.6 °F 14.7 °F 19.4 °F 74% 30.11 in 10.0 mi NW 15.0 mph - N/A   Overcast
7:55 AM 24.8 °F 14.0 °F 21.2 °F 86% 30.12 in 5.0 mi NNW 11.5 mph 19.6 mph N/A Rain Light Freezing Rain
8:31 AM 24.8 °F 11.5 °F 19.4 °F 80% 30.13 in 10.0 mi NNW 17.3 mph - N/A   Overcast
8:55 AM 24.8 °F 12.9 °F 19.4 °F 80% 30.14 in 10.0 mi NNW 13.8 mph 20.7 mph N/A Rain Light Freezing Rain
9:50 AM 24.8 °F 12.4 °F 17.6 °F 74% 30.15 in 10.0 mi NNW 15.0 mph - N/A   Overcast
10:48 AM 24.8 °F 12.9 °F 17.6 °F 74% 30.18 in 10.0 mi NNW 13.8 mph - N/A   Overcast
10:56 AM 24.8 °F 14.6 °F 17.6 °F 74% 30.16 in 10.0 mi NNW 10.4 mph - N/A Rain Light Freezing Rain
11:57 AM 23.0 °F 11.7 °F 19.4 °F 86% 30.15 in 5.0 mi NNW 11.5 mph - N/A Rain Light Freezing Rain
12:45 PM 23.0 °F 13.1 °F 21.2 °F 93% 30.17 in 10.0 mi NNW 9.2 mph - N/A   Overcast
1:57 PM - - - N/A% 30.14 in 3.0 mi NNW 10.4 mph - N/A Rain Light Freezing Rain
2:45 PM 21.2 °F 10.9 °F 19.4 °F 93% 30.17 in 5.0 mi NNW 9.2 mph - N/A Rain Light Freezing Rain
3:48 PM - - - N/A% 30.17 in 6.0 mi North 9.2 mph - N/A Rain Light Freezing Rain
4:10 PM - - - N/A% 30.17 in 1.8 mi NNW 10.4 mph - N/A   Unknown
4:50 PM 23.0 °F 11.7 °F 19.4 °F 86% 30.17 in 1.2 mi North 11.5 mph - N/A Snow Light Snow
5:45 PM 21.2 °F 10.1 °F 21.2 °F 100% 30.20 in 1.8 mi NNW 10.4 mph - N/A Snow Light Snow
6:47 PM 19.4 °F 6.0 °F 19.4 °F 100% 30.18 in 2.0 mi North 13.8 mph - N/A Snow Light Snow
7:45 PM - - - N/A% 30.18 in 0.8 mi North 9.2 mph - N/A   Unknown
8:47 PM 19.4 °F 8.6 °F 19.4 °F 100% 30.19 in 2.5 mi North 9.2 mph - N/A Snow Light Snow
9:15 PM 19.4 °F 9.5 °F - N/A% 30.19 in 5.0 mi North 8.1 mph - 0.01 in Snow Light Snow
9:35 PM 19.4 °F 8.6 °F - N/A% 30.19 in 5.0 mi North 9.2 mph - 0.02 in Snow Light Snow
9:55 PM 19.4 °F 8.6 °F - N/A% 30.20 in 9.0 mi North 9.2 mph - 0.02 in Snow Light Snow
10:15 PM 19.4 °F 7.9 °F - N/A% 30.21 in 7.0 mi North 10.4 mph - 0.01 in Snow Light Snow
10:35 PM 19.4 °F 9.5 °F - N/A% 30.22 in 10.0 mi North 8.1 mph - 0.01 in Snow Light Snow
10:55 PM 19.4 °F 8.6 °F - N/A% 30.23 in 1.5 mi NNW 9.2 mph - 0.10 in Snow Light Snow
11:15 PM 19.4 °F 8.6 °F - N/A% 30.24 in 0.8 mi NNW 9.2 mph - 0.22 in Snow Light Snow
11:35 PM 19.4 °F 7.9 °F - N/A% 30.25 in 0.8 mi NNW 10.4 mph - 1.00 in Snow Light Snow
11:55 PM 19.4 °F 7.2 °F - N/A% 30.23 in 0.8 mi NNW 11.5 mph - 1.97 in Snow Light Snow